TimeCST,TemperatureF,Dew PointF,Humidity,Sea Level PressureIn,VisibilityMPH,Wind Direction,Wind SpeedMPH,Gust SpeedMPH,PrecipitationIn,Events,Conditions,WindDirDegrees,DateUTC
12:56 AM,34.0,24.1,67,29.96,9.0,ENE,4.6,-,N/A,,Overcast,60,2012-12-08 06:56:00
1:56 AM,34.0,24.1,67,29.97,10.0,Calm,Calm,-,N/A,,Overcast,0,2012-12-08 07:56:00
2:56 AM,33.1,24.1,70,29.97,10.0,North,3.5,-,N/A,,Overcast,10,2012-12-08 08:56:00
3:56 AM,32.0,24.1,73,29.97,10.0,Calm,Calm,-,N/A,,Overcast,0,2012-12-08 09:56:00
4:56 AM,26.1,21.9,84,29.99,10.0,NNW,5.8,-,N/A,,Clear,340,2012-12-08 10:56:00
5:56 AM,28.9,23.0,78,30.01,10.0,NNW,4.6,-,N/A,,Scattered Clouds,330,2012-12-08 11:56:00
6:56 AM,27.0,21.9,81,30.02,10.0,West,3.5,-,N/A,,Scattered Clouds,270,2012-12-08 12:56:00
7:05 AM,26.6,21.2,80,30.02,10.0,WNW,3.5,-,N/A,,Mostly Cloudy,300,2012-12-08 13:05:00
7:56 AM,28.9,23.0,78,30.04,9.0,Calm,Calm,-,N/A,,Overcast,0,2012-12-08 13:56:00
8:56 AM,30.9,24.1,76,30.06,10.0,Calm,Calm,-,N/A,,Overcast,0,2012-12-08 14:56:00
9:48 AM,33.8,24.8,70,30.05,10.0,Calm,Calm,-,N/A,,Scattered Clouds,0,2012-12-08 15:48:00
9:56 AM,34.0,25.0,70,30.06,10.0,SE,3.5,-,N/A,,Partly Cloudy,130,2012-12-08 15:56:00
10:56 AM,37.0,25.0,62,30.06,10.0,Calm,Calm,-,N/A,,Clear,0,2012-12-08 16:56:00
11:56 AM,37.9,25.0,60,30.04,10.0,Calm,Calm,-,N/A,,Clear,0,2012-12-08 17:56:00
12:56 PM,39.9,24.1,53,30.03,10.0,ESE,4.6,-,N/A,,Partly Cloudy,110,2012-12-08 18:56:00
1:56 PM,39.9,23.0,51,30.03,10.0,SE,6.9,-,N/A,,Scattered Clouds,140,2012-12-08 19:56:00
2:56 PM,39.9,23.0,51,30.05,10.0,East,5.8,-,N/A,,Overcast,90,2012-12-08 20:56:00
3:56 PM,37.9,24.1,57,30.07,10.0,ESE,8.1,-,N/A,,Scattered Clouds,120,2012-12-08 21:56:00
4:56 PM,34.0,24.1,67,30.08,10.0,East,6.9,-,N/A,,Clear,90,2012-12-08 22:56:00
5:56 PM,32.0,24.1,73,30.08,10.0,East,6.9,-,N/A,,Clear,80,2012-12-08 23:56:00
6:56 PM,33.1,25.0,72,30.09,10.0,ESE,5.8,-,N/A,,Clear,110,2012-12-09 00:56:00
8:56 PM,33.1,26.1,75,30.09,9.0,ESE,4.6,-,N/A,,Overcast,110,2012-12-09 02:56:00
9:56 PM,34.0,26.1,73,30.09,8.0,East,10.4,-,N/A,,Mostly Cloudy,100,2012-12-09 03:56:00
10:56 PM,34.0,27.0,75,30.09,7.0,ESE,6.9,-,N/A,,Overcast,110,2012-12-09 04:56:00
11:56 PM,34.0,27.0,75,30.09,8.0,ESE,8.1,-,N/A,,Partly Cloudy,110,2012-12-09 05:56:00